QPF
0.00 0.00 0.00 0.01 0.02 0.02 0.03 0.03 0.04 0.03 0.03 0.02 0.02 0.01 0.01 0.01 0.03 0.02 0.02 0.01 0.01 0.02 0.02 0.04 0.03 0.02 0.02 0.02 0.01 0.01 0.01 0.01 0.00 0.00 0.00 0.02 0.02 0.02 0.01 0.00 0.01 0.01 0.01
0.00 0.00 0.00 0.01 0.03 0.02 0.04 0.04 0.03 0.03 0.03 0.02 0.02 0.02 0.02 0.02 0.02 0.02 0.02 0.02 0.02 0.02 0.03 0.03 0.03 0.02 0.02 0.02 0.01 0.01 0.01 0.01 0.00 0.00 0.00 0.01 0.01 0.01 0.01 0.01 0.01 0.01 0.01
0.00 0.00 0.01 0.01 0.04 0.04 0.05 0.05 0.04 0.02 0.03 0.03 0.03 0.02 0.02 0.01 0.02 0.02 0.02 0.01 0.02 0.03 0.04 0.03 0.03 0.02 0.01 0.02 0.01 0.01 0.01 0.01 0.00 0.00 0.01 0.01 0.01 0.01 0.01 0.01 0.01 0.01 0.01
0.00 0.00 0.01 0.02 0.05 0.06 0.05 0.06 0.05 0.04 0.03 0.03 0.03 0.03 0.02 0.02 0.02 0.02 0.01 0.01 0.02 0.02 0.02 0.03 0.02 0.01 0.01 0.01 0.01 0.02 0.01 0.00 0.00 0.00 0.01 0.01 0.01 0.01 0.01 0.01 0.01 0.01 0.02
0.00 0.00 0.01 0.03 0.06 0.06 0.05 0.07 0.07 0.06 0.05 0.03 0.03 0.02 0.02 0.02 0.03 0.03 0.02 0.02 0.02 0.02 0.02 0.02 0.02 0.01 0.00 0.00 0.01 0.02 0.01 0.00 0.00 0.00 0.02 0.01 0.02 0.02 0.02 0.02 0.01 0.02 0.01
0.01 0.01 0.02 0.04 0.06 0.07 0.07 0.08 0.08 0.08 0.06 0.04 0.04 0.03 0.03 0.02 0.02 0.03 0.04 0.03 0.02 0.02 0.02 0.01 0.01 0.00 0.00 0.00 0.00 0.01 0.00 0.00 0.00 0.00 0.01 0.01 0.01 0.02 0.03 0.03 0.02 0.01 0.01
0.01 0.03 0.04 0.05 0.07 0.09 0.10 0.10 0.09 0.10 0.08 0.06 0.04 0.04 0.03 0.02 0.02 0.03 0.03 0.02 0.02 0.02 0.01 0.02 0.01 0.00 0.00 0.00 0.01 0.01 0.00 0.00 0.00 0.00 0.00 0.01 0.01 0.02 0.01 0.01 0.01 0.01 0.02
0.02 0.04 0.05 0.05 0.06 0.11 0.13 0.12 0.10 0.08 0.06 0.05 0.04 0.03 0.03 0.02 0.03 0.03 0.02 0.01 0.01 0.01 0.01 0.02 0.01 0.00 0.00 0.00 0.00 0.01 0.00 0.00 0.00 0.00 0.01 0.01 0.01 0.01 0.01 0.00 0.01 0.01 0.02
0.03 0.05 0.06 0.06 0.07 0.10 0.11 0.11 0.09 0.06 0.05 0.05 0.03 0.03 0.02 0.02 0.03 0.03 0.01 0.01 0.02 0.01 0.01 0.01 0.01 0.01 0.00 0.00 0.00 0.00 0.00 0.00 0.00 0.00 0.00 0.01 0.01 0.02 0.02 0.01 0.01 0.01 0.01
0.04 0.06 0.08 0.09 0.09 0.10 0.12 0.09 0.08 0.07 0.06 0.05 0.04 0.02 0.02 0.02 0.03 0.02 0.01 0.01 0.01 0.01 0.01 0.01 0.01 0.02 0.01 0.01 0.00 0.00 0.00 0.00 0.00 0.00 0.01 0.02 0.02 0.02 0.02 0.02 0.02 0.02 0.02
0.04 0.07 0.09 0.12 0.13 0.13 0.13 0.11 0.09 0.08 0.07 0.06 0.04 0.02 0.02 0.02 0.02 0.02 0.01 0.01 0.01 0.01 0.01 0.01 0.01 0.02 0.02 0.01 0.00 0.00 0.00 0.00 0.00 0.00 0.01 0.01 0.02 0.02 0.02 0.02 0.02 0.01 0.01
0.05 0.07 0.09 0.12 0.16 0.18 0.16 0.16 0.11 0.08 0.06 0.04 0.03 0.03 0.02 0.02 0.03 0.02 0.01 0.01 0.01 0.01 0.01 0.01 0.01 0.02 0.02 0.01 0.00 0.00 0.00 0.00 0.00 0.00 0.00 0.01 0.02 0.03 0.04 0.03 0.01 0.01 0.01
0.05 0.07 0.08 0.12 0.16 0.17 0.19 0.22 0.15 0.12 0.09 0.07 0.05 0.05 0.04 0.05 0.04 0.03 0.02 0.02 0.01 0.01 0.01 0.01 0.01 0.02 0.01 0.01 0.00 0.00 0.01 0.01 0.01 0.00 0.00 0.00 0.01 0.03 0.04 0.03 0.02 0.02 0.02
0.06 0.06 0.08 0.11 0.16 0.16 0.17 0.20 0.15 0.13 0.12 0.12 0.09 0.07 0.05 0.06 0.07 0.04 0.03 0.03 0.03 0.02 0.02 0.02 0.02 0.02 0.01 0.01 0.00 0.00 0.00 0.00 0.01 0.01 0.01 0.00 0.01 0.03 0.04 0.02 0.02 0.02 0.02
0.06 0.06 0.08 0.10 0.14 0.18 0.19 0.18 0.13 0.10 0.07 0.08 0.09 0.08 0.05 0.06 0.07 0.05 0.04 0.04 0.03 0.02 0.02 0.02 0.02 0.03 0.02 0.02 0.01 0.01 0.00 0.00 0.00 0.00 0.00 0.00 0.00 0.01 0.02 0.02 0.02 0.03 0.02
0.05 0.05 0.07 0.08 0.12 0.18 0.21 0.21 0.14 0.09 0.06 0.04 0.07 0.11 0.09 0.06 0.07 0.05 0.05 0.05 0.05 0.03 0.02 0.02 0.02 0.04 0.04 0.03 0.02 0.01 0.00 0.00 0.00 0.00 0.00 0.00 0.00 0.00 0.01 0.01 0.01 0.01 0.01
0.06 0.05 0.05 0.07 0.11 0.16 0.20 0.20 0.18 0.11 0.06 0.03 0.03 0.07 0.12 0.10 0.10 0.07 0.05 0.05 0.05 0.04 0.03 0.02 0.03 0.04 0.05 0.05 0.04 0.02 0.01 0.00 0.00 0.00 0.00 0.00 0.00 0.00 0.00 0.01 0.01 0.01 0.01
0.07 0.08 0.07 0.08 0.12 0.14 0.16 0.17 0.18 0.13 0.08 0.03 0.02 0.02 0.03 0.05 0.06 0.07 0.07 0.06 0.05 0.04 0.04 0.03 0.02 0.03 0.03 0.04 0.04 0.03 0.01 0.01 0.01 0.01 0.00 0.00 0.00 0.00 0.00 0.00 0.00 0.00 0.00
0.08 0.12 0.10 0.09 0.13 0.15 0.14 0.14 0.15 0.13 0.08 0.04 0.02 0.01 0.01 0.02 0.04 0.05 0.05 0.05 0.05 0.03 0.02 0.02 0.03 0.04 0.03 0.03 0.03 0.03 0.03 0.01 0.01 0.01 0.01 0.00 0.00 0.00 0.00 0.01 0.00 0.00 0.00
0.08 0.14 0.15 0.13 0.15 0.18 0.15 0.14 0.14 0.13 0.10 0.05 0.02 0.01 0.00 0.01 0.02 0.04 0.04 0.03 0.02 0.01 0.01 0.01 0.02 0.03 0.03 0.03 0.03 0.02 0.03 0.02 0.01 0.01 0.01 0.01 0.00 0.00 0.01 0.01 0.01 0.01 0.01
0.08 0.11 0.16 0.16 0.17 0.19 0.18 0.16 0.13 0.11 0.09 0.06 0.03 0.01 0.00 0.00 0.01 0.03 0.04 0.04 0.03 0.01 0.01 0.01 0.01 0.01 0.02 0.03 0.03 0.03 0.02 0.02 0.02 0.01 0.01 0.01 0.01 0.00 0.00 0.01 0.01 0.01 0.01
0.07 0.09 0.13 0.17 0.20 0.21 0.20 0.19 0.13 0.09 0.08 0.05 0.03 0.02 0.01 0.00 0.01 0.02 0.03 0.04 0.04 0.03 0.01 0.00 0.01 0.01 0.01 0.02 0.04 0.04 0.04 0.03 0.03 0.02 0.01 0.01 0.01 0.01 0.01 0.01 0.01 0.01 0.01
0.06 0.06 0.08 0.12 0.19 0.24 0.23 0.20 0.14 0.08 0.08 0.05 0.04 0.03 0.02 0.01 0.01 0.01 0.02 0.03 0.04 0.04 0.02 0.01 0.01 0.01 0.01 0.01 0.02 0.03 0.04 0.03 0.03 0.03 0.02 0.01 0.01 0.00 0.00 0.00 0.00 0.01 0.01
0.05 0.04 0.06 0.09 0.14 0.20 0.23 0.20 0.13 0.08 0.07 0.05 0.04 0.03 0.02 0.01 0.01 0.01 0.01 0.01 0.02 0.03 0.02 0.01 0.00 0.01 0.01 0.01 0.02 0.02 0.02 0.02 0.03 0.03 0.02 0.01 0.01 0.00 0.00 0.00 0.00 0.01 0.01
0.04 0.03 0.05 0.07 0.10 0.14 0.18 0.17 0.11 0.08 0.07 0.06 0.04 0.03 0.03 0.02 0.01 0.01 0.01 0.01 0.01 0.02 0.02 0.01 0.00 0.00 0.01 0.01 0.01 0.01 0.02 0.02 0.02 0.02 0.02 0.01 0.01 0.01 0.01 0.01 0.01 0.01 0.01
0.03 0.03 0.04 0.06 0.07 0.08 0.12 0.12 0.09 0.08 0.08 0.07 0.04 0.03 0.03 0.02 0.01 0.02 0.01 0.01 0.01 0.01 0.01 0.01 0.01 0.01 0.01 0.01 0.01 0.01 0.01 0.01 0.01 0.01 0.01 0.01 0.01 0.01 0.01 0.01 0.01 0.01 0.01
MSLP
1011.44 1011.15 1010.93 1010.82 1010.82 1010.93 1011.14 1011.40 1011.69 1011.97 1012.23 1012.47 1012.67 1012.87 1013.07 1013.29 1013.52 1013.76 1014.00 1014.23 1014.45 1014.64 1014.82 1015.00 1015.17 1015.36 1015.54 1015.71 1015.87 1016.01 1016.12 1016.21 1016.28 1016.36 1016.44 1016.53 1016.64 1016.74 1016.84 1016.91 1016.97 1017.01 1017.04
1011.85 1011.48 1011.18 1011.01 1010.97 1011.04 1011.21 1011.45 1011.73 1012.00 1012.26 1012.51 1012.74 1012.96 1013.20 1013.44 1013.70 1013.95 1014.20 1014.43 1014.63 1014.82 1015.01 1015.18 1015.36 1015.54 1015.72 1015.89 1016.04 1016.16 1016.25 1016.33 1016.41 1016.50 1016.61 1016.73 1016.87 1017.00 1017.12 1017.22 1017.29 1017.33 1017.36
1012.10 1011.67 1011.34 1011.12 1011.04 1011.09 1011.23 1011.45 1011.70 1011.97 1012.23 1012.48 1012.73 1012.98 1013.24 1013.51 1013.78 1014.04 1014.29 1014.51 1014.72 1014.91 1015.10 1015.29 1015.48 1015.67 1015.85 1016.02 1016.16 1016.27 1016.36 1016.43 1016.51 1016.61 1016.73 1016.88 1017.04 1017.20 1017.35 1017.46 1017.55 1017.60 1017.64
1012.19 1011.75 1011.41 1011.19 1011.09 1011.12 1011.24 1011.42 1011.65 1011.89 1012.15 1012.40 1012.66 1012.93 1013.21 1013.50 1013.78 1014.05 1014.30 1014.53 1014.74 1014.94 1015.14 1015.35 1015.57 1015.77 1015.97 1016.14 1016.28 1016.38 1016.46 1016.53 1016.60 1016.70 1016.84 1017.00 1017.18 1017.36 1017.52 1017.66 1017.76 1017.83 1017.89
1012.14 1011.75 1011.44 1011.24 1011.15 1011.16 1011.25 1011.40 1011.59 1011.80 1012.04 1012.29 1012.56 1012.85 1013.16 1013.46 1013.76 1014.04 1014.30 1014.54 1014.76 1014.98 1015.20 1015.43 1015.67 1015.90 1016.11 1016.29 1016.42 1016.52 1016.59 1016.65 1016.73 1016.83 1016.96 1017.12 1017.31 1017.49 1017.67 1017.82 1017.94 1018.04 1018.12
1012.03 1011.71 1011.46 1011.31 1011.23 1011.23 1011.29 1011.39 1011.53 1011.70 1011.92 1012.17 1012.45 1012.77 1013.11 1013.45 1013.77 1014.08 1014.35 1014.60 1014.84 1015.08 1015.32 1015.57 1015.83 1016.08 1016.30 1016.48 1016.61 1016.71 1016.77 1016.83 1016.89 1016.99 1017.12 1017.28 1017.47 1017.65 1017.83 1017.99 1018.13 1018.25 1018.35
1011.89 1011.66 1011.50 1011.39 1011.33 1011.32 1011.33 1011.37 1011.46 1011.58 1011.77 1012.02 1012.33 1012.69 1013.08 1013.47 1013.85 1014.19 1014.49 1014.77 1015.02 1015.27 1015.53 1015.79 1016.06 1016.31 1016.53 1016.70 1016.83 1016.92 1016.98 1017.03 1017.10 1017.20 1017.33 1017.49 1017.67 1017.86 1018.03 1018.20 1018.35 1018.49 1018.63
1011.77 1011.64 1011.54 1011.48 1011.43 1011.38 1011.34 1011.31 1011.33 1011.41 1011.57 1011.84 1012.18 1012.60 1013.06 1013.53 1013.97 1014.37 1014.72 1015.02 1015.29 1015.55 1015.81 1016.07 1016.33 1016.57 1016.77 1016.94 1017.05 1017.13 1017.19 1017.25 1017.34 1017.45 1017.59 1017.76 1017.95 1018.13 1018.31 1018.48 1018.64 1018.80 1018.97
1011.69 1011.62 1011.58 1011.53 1011.47 1011.37 1011.26 1011.15 1011.10 1011.13 1011.28 1011.56 1011.97 1012.46 1013.01 1013.57 1014.10 1014.57 1014.97 1015.30 1015.59 1015.86 1016.11 1016.36 1016.59 1016.81 1017.00 1017.14 1017.25 1017.32 1017.39 1017.47 1017.58 1017.73 1017.90 1018.10 1018.30 1018.50 1018.68 1018.86 1019.02 1019.20 1019.38
1011.64 1011.61 1011.58 1011.53 1011.42 1011.26 1011.06 1010.86 1010.73 1010.71 1010.85 1011.16 1011.63 1012.21 1012.87 1013.53 1014.16 1014.70 1015.16 1015.54 1015.85 1016.12 1016.37 1016.60 1016.81 1017.01 1017.17 1017.29 1017.39 1017.48 1017.57 1017.68 1017.83 1018.02 1018.25 1018.48 1018.72 1018.94 1019.14 1019.32 1019.49 1019.66 1019.85
1011.59 1011.57 1011.54 1011.45 1011.28 1011.03 1010.73 1010.43 1010.21 1010.14 1010.27 1010.60 1011.13 1011.81 1012.57 1013.34 1014.07 1014.71 1015.23 1015.65 1016.00 1016.28 1016.53 1016.75 1016.95 1017.13 1017.28 1017.41 1017.51 1017.62 1017.74 1017.90 1018.10 1018.35 1018.63 1018.92 1019.20 1019.45 1019.66 1019.84 1020.01 1020.18 1020.37
1011.53 1011.50 1011.45 1011.31 1011.06 1010.71 1010.30 1009.90 1009.60 1009.47 1009.57 1009.92 1010.50 1011.26 1012.11 1012.98 1013.80 1014.53 1015.12 1015.60 1015.99 1016.30 1016.57 1016.81 1017.02 1017.21 1017.37 1017.51 1017.64 1017.78 1017.94 1018.15 1018.42 1018.73 1019.06 1019.41 1019.72 1020.00 1020.22 1020.40 1020.56 1020.71 1020.88
1011.42 1011.39 1011.31 1011.13 1010.81 1010.36 1009.85 1009.35 1008.96 1008.77 1008.83 1009.18 1009.79 1010.60 1011.52 1012.47 1013.37 1014.17 1014.83 1015.38 1015.82 1016.18 1016.50 1016.79 1017.05 1017.28 1017.48 1017.66 1017.84 1018.02 1018.23 1018.49 1018.81 1019.17 1019.55 1019.93 1020.27 1020.56 1020.78 1020.96 1021.09 1021.22 1021.36
1011.28 1011.25 1011.16 1010.95 1010.58 1010.07 1009.47 1008.89 1008.42 1008.16 1008.18 1008.50 1009.11 1009.93 1010.88 1011.87 1012.82 1013.68 1014.41 1015.02 1015.53 1015.97 1016.37 1016.73 1017.07 1017.37 1017.65 1017.90 1018.14 1018.38 1018.64 1018.94 1019.29 1019.68 1020.09 1020.48 1020.83 1021.12 1021.33 1021.48 1021.58 1021.68 1021.79
1011.10 1011.10 1011.03 1010.82 1010.43 1009.89 1009.25 1008.61 1008.08 1007.76 1007.73 1008.01 1008.58 1009.38 1010.32 1011.31 1012.27 1013.16 1013.93 1014.60 1015.18 1015.71 1016.21 1016.67 1017.12 1017.53 1017.91 1018.25 1018.57 1018.87 1019.18 1019.51 1019.88 1020.27 1020.67 1021.05 1021.38 1021.64 1021.83 1021.95 1022.03 1022.09 1022.17
1010.91 1010.96 1010.94 1010.77 1010.41 1009.89 1009.25 1008.60 1008.05 1007.69 1007.61 1007.83 1008.34 1009.08 1009.96 1010.90 1011.83 1012.70 1013.49 1014.20 1014.85 1015.46 1016.06 1016.65 1017.22 1017.76 1018.25 1018.70 1019.09 1019.46 1019.81 1020.16 1020.52 1020.90 1021.27 1021.61 1021.90 1022.13 1022.28 1022.37 1022.42 1022.45 1022.51
1010.74 1010.85 1010.90 1010.81 1010.53 1010.07 1009.49 1008.87 1008.33 1007.97 1007.85 1008.02 1008.45 1009.09 1009.88 1010.73 1011.59 1012.40 1013.17 1013.89 1014.58 1015.26 1015.96 1016.66 1017.35 1018.02 1018.63 1019.18 1019.66 1020.08 1020.46 1020.82 1021.17 1021.52 1021.84 1022.14 1022.38 1022.56 1022.68 1022.73 1022.76 1022.78 1022.83
1010.61 1010.78 1010.91 1010.91 1010.73 1010.38 1009.91 1009.38 1008.91 1008.57 1008.45 1008.57 1008.93 1009.46 1010.13 1010.85 1011.59 1012.31 1013.01 1013.70 1014.40 1015.13 1015.89 1016.69 1017.49 1018.26 1018.98 1019.62 1020.17 1020.65 1021.06 1021.42 1021.76 1022.06 1022.35 1022.59 1022.79 1022.93 1023.02 1023.06 1023.07 1023.09 1023.13
1010.54 1010.75 1010.95 1011.04 1010.99 1010.77 1010.44 1010.05 1009.69 1009.43 1009.34 1009.44 1009.72 1010.15 1010.68 1011.25 1011.85 1012.44 1013.04 1013.66 1014.33 1015.06 1015.86 1016.71 1017.58 1018.44 1019.24 1019.95 1020.57 1021.09 1021.52 1021.89 1022.21 1022.49 1022.74 1022.95 1023.11 1023.23 1023.30 1023.34 1023.36 1023.38 1023.44
1010.56 1010.78 1011.01 1011.18 1011.23 1011.17 1010.99 1010.77 1010.56 1010.41 1010.39 1010.50 1010.74 1011.07 1011.47 1011.89 1012.32 1012.77 1013.24 1013.76 1014.36 1015.06 1015.85 1016.72 1017.62 1018.52 1019.37 1020.13 1020.79 1021.34 1021.79 1022.17 1022.49 1022.76 1022.99 1023.18 1023.34 1023.45 1023.53 1023.58 1023.61 1023.66 1023.73
1010.68 1010.85 1011.08 1011.29 1011.44 1011.50 1011.49 1011.45 1011.41 1011.41 1011.49 1011.64 1011.86 1012.13 1012.40 1012.68 1012.95 1013.24 1013.56 1013.97 1014.48 1015.11 1015.86 1016.71 1017.61 1018.51 1019.38 1020.16 1020.83 1021.40 1021.86 1022.25 1022.57 1022.85 1023.09 1023.29 1023.46 1023.59 1023.69 1023.77 1023.83 1023.90 1023.99
1010.90 1011.00 1011.18 1011.38 1011.58 1011.75 1011.89 1012.02 1012.16 1012.33 1012.52 1012.75 1012.98 1013.20 1013.38 1013.53 1013.66 1013.80 1013.99 1014.27 1014.67 1015.22 1015.91 1016.71 1017.57 1018.45 1019.29 1020.06 1020.73 1021.29 1021.76 1022.15 1022.49 1022.78 1023.05 1023.28 1023.48 1023.65 1023.79 1023.90 1024.00 1024.10 1024.20
1011.23 1011.22 1011.32 1011.48 1011.68 1011.92 1012.17 1012.45 1012.76 1013.08 1013.41 1013.73 1013.99 1014.19 1014.32 1014.37 1014.39 1014.40 1014.46 1014.63 1014.94 1015.40 1016.01 1016.74 1017.55 1018.38 1019.17 1019.90 1020.54 1021.08 1021.54 1021.93 1022.28 1022.60 1022.89 1023.16 1023.41 1023.63 1023.82 1023.98 1024.11 1024.24 1024.36
1011.67 1011.54 1011.52 1011.61 1011.78 1012.04 1012.37 1012.76 1013.20 1013.67 1014.12 1014.52 1014.83 1015.04 1015.13 1015.12 1015.05 1014.97 1014.94 1015.02 1015.25 1015.64 1016.18 1016.84 1017.58 1018.34 1019.07 1019.74 1020.33 1020.83 1021.26 1021.64 1021.99 1022.33 1022.66 1022.98 1023.28 1023.55 1023.79 1024.00 1024.17 1024.32 1024.45
1012.19 1011.95 1011.82 1011.81 1011.92 1012.16 1012.52 1012.98 1013.52 1014.09 1014.64 1015.11 1015.47 1015.70 1015.77 1015.73 1015.61 1015.48 1015.39 1015.41 1015.59 1015.92 1016.40 1017.01 1017.68 1018.37 1019.03 1019.63 1020.15 1020.60 1020.99 1021.34 1021.69 1022.04 1022.39 1022.75 1023.10 1023.43 1023.72 1023.97 1024.18 1024.35 1024.50
1012.78 1012.44 1012.20 1012.09 1012.12 1012.32 1012.67 1013.15 1013.74 1014.37 1014.98 1015.51 1015.91 1016.15 1016.22 1016.17 1016.03 1015.87 1015.76 1015.76 1015.90 1016.21 1016.66 1017.21 1017.83 1018.46 1019.05 1019.58 1020.03 1020.41 1020.76 1021.08 1021.41 1021.76 1022.13 1022.52 1022.91 1023.28 1023.62 1023.91 1024.16 1024.35 1024.52
Thickness
5730 5731 5730 5730 5730 5730 5730 5729 5729 5728 5728 5727 5727 5726 5726 5725 5725 5724 5724 5724 5724 5724 5724 5724 5724 5724 5723 5723 5723 5722 5721 5721 5721 5720 5720 5719 5719 5719 5718 5718 5718 5717 5716
5726 5727 5726 5726 5726 5726 5726 5726 5725 5724 5724 5724 5723 5723 5722 5722 5722 5721 5721 5721 5721 5721 5721 5721 5721 5721 5720 5720 5719 5719 5718 5718 5718 5717 5717 5716 5716 5715 5715 5715 5714 5714 5713
5721 5721 5721 5721 5721 5722 5721 5721 5721 5721 5720 5720 5720 5719 5719 5718 5718 5718 5718 5718 5718 5718 5718 5718 5717 5717 5717 5716 5716 5715 5715 5715 5716 5715 5715 5714 5713 5713 5712 5712 5711 5711 5710
5715 5715 5715 5715 5716 5716 5717 5717 5717 5717 5716 5716 5716 5715 5715 5715 5715 5715 5714 5714 5714 5714 5714 5714 5714 5713 5713 5712 5712 5712 5712 5713 5713 5713 5713 5712 5711 5710 5709 5708 5708 5707 5707
5707 5708 5709 5709 5710 5711 5711 5712 5712 5712 5712 5712 5711 5711 5711 5711 5711 5711 5711 5711 5710 5710 5710 5710 5710 5709 5709 5709 5708 5709 5709 5710 5711 5710 5710 5709 5707 5707 5706 5705 5704 5704 5703
5699 5701 5701 5702 5703 5704 5705 5706 5706 5706 5707 5707 5707 5707 5707 5707 5707 5707 5707 5706 5706 5706 5706 5706 5706 5705 5705 5704 5705 5705 5706 5707 5707 5707 5707 5705 5703 5703 5702 5701 5701 5700 5700
5689 5692 5693 5695 5696 5697 5698 5699 5700 5701 5701 5701 5702 5702 5702 5703 5703 5703 5702 5702 5702 5702 5702 5702 5701 5701 5700 5700 5701 5701 5702 5703 5703 5704 5703 5701 5700 5699 5698 5698 5697 5696 5696
5680 5682 5684 5687 5688 5690 5692 5693 5694 5694 5695 5695 5696 5697 5697 5698 5698 5698 5698 5698 5698 5698 5698 5697 5697 5696 5696 5696 5696 5697 5698 5699 5700 5699 5698 5697 5696 5695 5695 5694 5693 5693 5692
5671 5673 5676 5678 5681 5683 5685 5686 5687 5688 5688 5689 5690 5691 5691 5692 5693 5693 5693 5693 5693 5693 5693 5692 5692 5692 5692 5692 5692 5693 5694 5695 5695 5695 5694 5692 5692 5691 5691 5690 5689 5688 5687
5661 5664 5667 5669 5672 5675 5677 5678 5680 5681 5682 5682 5683 5684 5685 5686 5687 5687 5688 5688 5688 5688 5688 5687 5687 5687 5687 5687 5688 5689 5690 5690 5690 5690 5689 5688 5687 5687 5686 5685 5684 5684 5682
5650 5653 5657 5660 5663 5666 5669 5671 5672 5674 5675 5676 5676 5678 5679 5680 5680 5681 5682 5682 5682 5682 5682 5682 5682 5683 5683 5683 5684 5685 5685 5685 5686 5685 5684 5683 5683 5682 5681 5680 5679 5678 5677
5638 5643 5647 5651 5654 5658 5661 5663 5664 5666 5668 5669 5670 5672 5673 5674 5674 5675 5675 5676 5676 5677 5677 5677 5678 5678 5678 5679 5679 5680 5680 5680 5680 5679 5678 5678 5677 5677 5676 5675 5674 5673 5672
5629 5633 5638 5642 5646 5649 5652 5655 5657 5659 5660 5662 5664 5665 5666 5667 5667 5668 5668 5669 5670 5671 5671 5672 5673 5673 5674 5674 5675 5675 5675 5675 5674 5673 5672 5672 5672 5671 5670 5669 5668 5667 5666
5620 5625 5629 5633 5637 5640 5644 5647 5650 5651 5653 5655 5657 5659 5659 5660 5660 5660 5662 5662 5663 5664 5666 5666 5668 5668 5669 5669 5670 5670 5670 5669 5668 5667 5666 5666 5665 5665 5664 5663 5662 5661 5660
5613 5616 5620 5624 5628 5632 5636 5639 5642 5643 5645 5647 5649 5651 5652 5652 5652 5653 5655 5656 5657 5658 5659 5661 5662 5663 5663 5663 5664 5664 5664 5663 5662 5661 5659 5659 5658 5658 5657 5656 5655 5654 5653
5606 5609 5612 5616 5620 5624 5628 5631 5634 5635 5637 5638 5640 5643 5645 5645 5645 5646 5647 5648 5650 5651 5653 5654 5656 5656 5656 5657 5657 5657 5657 5657 5656 5655 5653 5652 5651 5650 5650 5649 5648 5647 5646
5600 5602 5605 5609 5612 5617 5620 5623 5626 5627 5629 5630 5632 5635 5637 5637 5638 5639 5640 5641 5643 5644 5646 5647 5649 5649 5650 5650 5649 5650 5650 5650 5649 5648 5647 5645 5644 5643 5642 5642 5641 5640 5639
5595 5596 5598 5602 5605 5609 5612 5616 5617 5619 5621 5623 5624 5627 5629 5630 5631 5632 5633 5634 5636 5637 5638 5639 5640 5641 5641 5641 5641 5642 5642 5643 5642 5641 5640 5639 5637 5636 5634 5634 5633 5632 5631
5589 5590 5591 5595 5597 5601 5604 5608 5610 5612 5613 5615 5617 5619 5621 5623 5624 5625 5626 5627 5629 5630 5630 5632 5632 5633 5633 5633 5633 5633 5634 5634 5635 5634 5633 5632 5631 5629 5627 5626 5625 5624 5623
5584 5585 5586 5587 5590 5593 5596 5599 5602 5603 5605 5607 5609 5611 5613 5615 5616 5618 5619 5620 5621 5622 5623 5624 5624 5625 5625 5625 5626 5625 5626 5627 5627 5627 5626 5625 5624 5622 5621 5619 5618 5616 5615
5578 5579 5580 5580 5583 5585 5588 5591 5593 5594 5597 5599 5601 5603 5606 5608 5609 5610 5611 5613 5614 5615 5616 5617 5617 5617 5617 5617 5616 5615 5617 5619 5619 5620 5619 5618 5617 5615 5614 5612 5610 5609 5607
5572 5573 5574 5575 5577 5579 5581 5584 5586 5588 5589 5591 5594 5596 5598 5600 5601 5603 5604 5605 5607 5608 5609 5609 5609 5608 5609 5609 5608 5607 5606 5607 5610 5612 5611 5610 5609 5607 5606 5604 5602 5601 5599
5566 5567 5569 5570 5572 5573 5575 5577 5579 5580 5582 5585 5587 5588 5590 5592 5594 5595 5597 5598 5599 5600 5600 5601 5601 5601 5599 5600 5601 5601 5599 5599 5599 5601 5602 5602 5601 5599 5598 5596 5595 5593 5591
5562 5563 5564 5565 5566 5567 5569 5571 5573 5574 5575 5577 5580 5581 5582 5584 5586 5588 5589 5590 5591 5591 5592 5593 5593 5592 5592 5591 5592 5593 5594 5594 5590 5589 5590 5592 5592 5590 5589 5588 5586 5584 5582
5558 5559 5559 5560 5560 5562 5564 5565 5566 5568 5570 5571 5573 5575 5575 5577 5579 5580 5581 5582 5582 5582 5583 5584 5583 5583 5583 5583 5583 5583 5584 5584 5584 5581 5579 5579 5580 5581 5580 5579 5577 5575 5573
5554 5554 5555 5555 5556 5557 5559 5560 5562 5564 5564 5565 5566 5567 5568 5569 5570 5572 5573 5573 5574 5574 5575 5575 5574 5574 5574 5574 5574 5574 5574 5574 5573 5572 5570 5569 5569 5570 5570 5569 5568 5566 5563